Weather observations for the past three days for
Caldwell - Caldwell Industrial Airport
Imperial (Metric)
Date Time (mdt) Wind (mph) Vis. (mi.) Weather Sky Cond. Temperature (ºF) Relative Humidity Wind Chill (°F) Heat Index (°F) Pressure Precipitation (in)
Air Dwpt 6 hour altimeter (in) sea level (mb) 1 hr 3 hr 6 hr
Max. Min.
22 21:56 Calm 10.00 Fair CLR 88 59 38% 87 29.84 1007.2
22 20:56 NE 5 10.00 Fair CLR 93.9 57.9 30% 93 29.82 1006.5
22 19:56 N 5 9.00 Fair CLR 102 57 23% 101 29.81 1006.4
22 18:56 NE 3 10.00 Fair CLR 104 48 15% 100 29.82 1006.5
22 17:56 Vrbl 3 10.00 Fair CLR 106 50 106 95 15% 103 29.84 1007.1
22 16:56 Calm 9.00 Fair CLR 106 50 15% 103 29.86 1007.7
22 15:56 Vrbl 7 10.00 Fair CLR 102.9 48 16% 99 29.88 1008.5
22 14:56 Vrbl 5 10.00 Fair CLR 100.9 48.9 17% 98 29.9 1009.4
22 13:56 Vrbl 3 7.00 Fair CLR 100.9 48 17% 97 29.92 1010.0
22 12:56 Vrbl 7 10.00 Fair CLR 98.1 54 23% 96 29.94 1010.4
22 11:56 SE 6 10.00 Fair CLR 95 52 95 75 23% 92 29.95 1011.0
22 10:56 Vrbl 5 10.00 Fair CLR 93 55.9 29% 91 29.96 1011.5
22 09:56 Calm 10.00 Fair CLR 87.1 57 36% 86 29.97 1011.8
22 08:56 Calm 10.00 Fair CLR 84 59 43% 84 29.97 1011.8
22 07:56 S 3 9.00 Fair CLR 75.9 61 60% 78 29.96 1011.4
22 06:56 Calm 10.00 Fair CLR 77 59 54% 79 29.94 1010.7
22 05:56 SW 6 10.00 Fair CLR 79 57.9 86 75.9 49% 80 29.94 1010.4
22 04:56 NE 5 10.00 Fair CLR 75.9 59 56% 78 29.92 1009.9
22 03:56 N 8 10.00 Fair CLR 78.1 59 52% 79 29.94 1010.6
22 02:56 E 5 10.00 Fair CLR 79 57.9 49% 80 29.95 1010.9
22 01:56 NE 5 10.00 Fair CLR 80.1 57.9 47% 81 29.96 1011.3
22 00:56 E 3 10.00 Fair CLR 84 57 40% 83 29.95 1010.9
21 23:56 S 5 10.00 Fair CLR 84 55 106 82 37% 83 29.95 1011.1
21 22:56 SE 3 10.00 Fair CLR 87.1 53.1 31% 85 29.96 1011.2
21 21:56 NW 5 10.00 Fair CLR 88 54 31% 86 29.94 1011.1
21 20:56 NW 5 10.00 Fair CLR 91.9 54 28% 90 29.93 1010.6
21 19:56 W 20 G 25 10.00 Fair CLR 97 54 24% 95 29.9 1009.7
21 18:56 W 7 10.00 Fair CLR 104 50 16% 101 29.88 1008.9
21 17:56 S 7 10.00 Fair CLR 105.1 48 106 93 15% 102 29.88 1009.0
21 16:56 S 7 10.00 Fair CLR 105.1 54 18% 103 29.89 1009.3
21 15:56 Calm 6.00 Fair with Haze CLR 102 54 20% 100 29.91 1009.9
21 14:56 N 8 8.00 Fair CLR 100.9 55.9 22% 100 29.94 1010.8
21 13:56 NE 9 10.00 Fair CLR 100 55 22% 98 29.96 1011.7
21 12:56 E 7 10.00 Fair CLR 96.1 54 24% 94 30 1012.9
21 11:56 E 9 10.00 Fair CLR 91.9 52 91.9 64.9 26% 89 30.02 1013.5
21 10:56 E 10 10.00 Fair CLR 90 52 27% 87 30.03 1014.0
21 09:56 E 10 10.00 Fair CLR 84 53.1 34% 83 30.04 1014.2
21 08:56 E 7 10.00 Fair CLR 75 57 54% 78 30.04 1014.5
21 07:56 N 3 10.00 Fair CLR 68 57.9 70% 30.03 1014.3
21 06:56 NE 6 8.00 Fair CLR 64.9 55.9 73% 30.02 1014.0
21 05:56 E 6 10.00 Fair CLR 64.9 57.9 80.1 64 78% 30.01 1013.6
21 04:56 E 3 10.00 Fair CLR 66.9 55.9 68% 30 1013.2
21 03:56 E 7 10.00 Fair CLR 69.1 55.9 63% 30 1013.1
21 02:56 SW 3 10.00 Fair CLR 71.1 54 55% 29.98 1012.6
21 01:56 W 7 10.00 Fair CLR 73 59 62% 29.98 1012.3
21 00:56 SW 5 10.00 Fair CLR 78.1 61 56% 80 29.98 1012.4
20 23:56 W 6 10.00 Fair CLR 81 60.1 102 80.1 49% 82 29.98 1012.3
20 22:56 W 5 10.00 Fair CLR 81 60.1 49% 82 29.98 1012.5
20 21:56 SW 3 10.00 Fair CLR 88 62.1 42% 88 29.98 1012.3
20 20:56 W 6 10.00 Fair CLR 91 60.1 35% 91 29.97 1012.2
20 19:56 W 9 10.00 Fair CLR 97 55.9 25% 95 29.97 1012.1
20 18:56 W 8 10.00 Fair CLR 100 54 21% 98 29.97 1012.3
20 17:56 Calm 10.00 Fair CLR 102 51.1 102 87.1 18% 99 29.99 1012.6
20 16:56 NW 3 10.00 Fair CLR 100.9 51.1 19% 98 30.01 1013.3
20 15:56 W 3 10.00 Fair CLR 100 50 18% 97 30.04 1014.3
20 14:56 Calm 10.00 Fair CLR 97 51.1 21% 94 30.06 1015.0
20 13:56 N 6 10.00 Fair CLR 93.9 53.1 25% 91 30.08 1015.9
20 12:56 Vrbl 5 10.00 Fair CLR 90 52 27% 87 30.1 1016.6
20 11:56 N 5 10.00 Fair CLR 88 52 88 64.9 29% 86 30.12 1017.1
20 10:56 Vrbl 3 10.00 Fair CLR 82 46.9 29% 80 30.12 1017.5
20 09:56 N 5 10.00 Fair CLR 80.1 48 33% 79 30.12 1017.5
20 08:56 Calm 10.00 Fair CLR 75 50 42% 78 30.12 1017.2
20 07:56 NE 3 10.00 Fair CLR 69.1 51.1 53% 30.11 1016.8
20 06:56 Calm 10.00 Fair CLR 66 48 52% 30.1 1016.5
20 05:56 W 6 10.00 Fair CLR 70 43 82 70 38% 30.08 1015.8
20 04:56 W 7 10.00 Fair CLR 72 44.1 37% 30.07 1015.4
20 03:56 W 9 10.00 Fair CLR 72 44.1 37% 30.06 1015.0
20 02:56 W 9 10.00 Fair CLR 75.9 43 31% 77 30.06 1014.8
20 01:56 SW 9 10.00 Fair CLR 77 45 32% 78 30.05 1014.8
20 00:56 SW 8 10.00 Fair CLR 80.1 45 29% 79 30.04 1014.4
19 22:56 W 9 10.00 Fair CLR 84 57.9 41% 83 30.01 1013.5
Date Time (mdt) Wind (mph) Vis. (mi.) Weather Sky Cond. Air Dwpt Max. Min. Relative Humidity Wind Chill (°F) Heat Index (°F) altimeter (in) sea level (mb) 1 hr 3 hr 6 hr
6 hour
Temperature (ºF) Pressure Precipitation (in)